Location: Marsån
(66.4167°N, 22.2833°E)
Time: 10:07:46
(UTC+00:00)

SL-08 ROCKET BODY - Pass Details

Date: 24 February 2024
Orbit: 896 x 962 km, 82.9° (Epoch: 15 April)

Event Time Altitude Azimuth Distance (km) Brightness Sun altitude
Rises 18:34:58 0° 339° (NNW) 3,549 8.1 -19.5°
Reaches altitude 10° 18:37:29 10° 343° (NNW) 2,598 7.3 -19.7°
Maximum altitude 18:43:21 66° 66° (ENE) 986 4.3 -20.3°
Enters shadow 18:45:41 37° 135° (SE) 1,373 4.8 -20.5°
